Toledo

Airport
ICAO code: 
KTOL
Summary
ICAO Region: 
NAM
Territory: 
Location: 
Toledo, Ohio,
Coordinates: 
Aerial View: 
41° 35' 10.46" N, 83° 48' 15.522" W
Metar
Observation
KTOL 191424Z 26012KT 10SM BKN021 04/M01 A2983 RMK AO2 T00441006
Station
Toledo, Toledo Express Airport
Date/Time
2022-01-19 14:24:00
Wind direction
260°
Wind speed
12 kts
Lowest cloud amount
broken clouds
Temperature
4.4°C
Dew point
-0.6°C
Humidity
69%
Weather condition
n/a

Description

Toledo Express Airport is a joint civil-military airport located 16 km west of the city of Toledo in the extreme Western portion of Lucas County, Ohio, United States. In addition to serving commercial passenger, cargo and general aviation aircraft the airport is also a base for the Ohio Air National Guard.

Climatology

Runways

Designator Length Width Surface Rops
16/34 1707 46 ASP Yes/Yes
7/25 3231 46 ASP Yes/Yes
Airport map: 
Aerial View: 

SKYbrary Partners:

Safety knowledge contributed by: